Flag for Belgium Weather past 2 weeks in Liège, Belgium

Now
37 °F

Partly sunny.


Feels Like: 33 °F
Forecast: 32 / 38 °F
Wind: 6 mph from West

Location: Bierset

Current Time: Dec 26, 2014 at 11:48:06 AM

Latest Report: Dec 26, 2014 at 10:50 AM


Visibility: 4 mi

Pressure: 30.42 "Hg

Humidity: 93%

Dew point: 36 °F

Location of LiègeLocation

Historic Weather in Liège — Graph

°F

Liège temperature yesterday

Maximum temperature yesterday: 43 °F (at 1:20 PM)
Minimum temperature yesterday: 36 °F (at 6:50 AM)
Average temperature yesterday: 39 °F

Past Weeks' High & Low Weather Summary

 TemperatureHumidityPressure
High54 °F (Dec 18, 3:50 PM)100% (Dec 13, 2:20 AM)30.45 "Hg (Dec 13, 2:20 AM)
Low32 °F (Dec 14, 10:20 PM)76% (Dec 11, 2:50 PM)29.45 "Hg (Dec 12, 2:20 PM)
Average42 °F88%30.02 "Hg
* Reported Dec 11 10:20 AM — Dec 26 10:50 AM, Liège, Weather by CustomWeather, © 2014

Note: Actual official high and low records may vary slightly from our data, if they occured in-between our weather recording intervals... More about our weather records

Advertising

Liège weather history for previous 24 hours

 ConditionsComfort  
Time TempWeatherWind HumidityBarometerVisibility
10:50 AM
Dec 26
37 °FPartly sunny.6 mph93%30.42 "Hg4 mi
10:20 AM37 °FPartly sunny.5 mph93%30.42 "Hg4 mi
9:50 AM37 °FBroken clouds.7 mph93%30.42 "Hg4 mi
9:20 AM36 °FBroken clouds.6 mph93%30.42 "Hg4 mi
8:50 AM36 °FBroken clouds.7 mph93%30.42 "Hg4 mi
8:20 AM36 °FFog.7 mph93%30.42 "Hg2 mi
7:50 AM36 °FFog.9 mph93%30.42 "Hg2 mi
7:20 AM36 °FFog.8 mph93%30.39 "Hg2 mi
6:50 AM36 °FFog.7 mph93%30.39 "Hg2 mi
6:20 AM37 °FLight rain. Fog.8 mph93%30.39 "Hg2 mi
5:50 AM36 °FFog.8 mph100%30.42 "Hg2 mi
5:20 AM36 °FFog.6 mph93%30.42 "Hg1 mi
4:50 AM34 °FFog.6 mph93%30.39 "Hg1 mi
4:20 AM36 °FFog.5 mph93%30.39 "Hg2 mi
3:50 AM36 °FFog.7 mph93%30.39 "Hg1 mi
3:20 AM36 °FFog.6 mph93%30.39 "Hg1 mi
2:50 AM36 °FFog.7 mph100%30.39 "Hg1 mi
2:20 AM36 °FFog.7 mph100%30.39 "Hg2 mi
1:50 AM36 °FFog.6 mph93%30.39 "Hg2 mi
1:20 AM36 °FFog.5 mph100%30.39 "Hg3 mi
12:50 AM37 °FPassing clouds.6 mph93%30.39 "Hg4 mi
12:20 AM37 °FPassing clouds.7 mph93%30.39 "Hg4 mi
11:50 PM
Dec 25
37 °FPassing clouds.7 mph93%30.39 "Hg4 mi
11:20 PM37 °FPassing clouds.7 mph93%30.39 "Hg3 mi
10:50 PM37 °FSprinkles. Partly cloudy.6 mph93%30.39 "Hg4 mi
10:20 PM37 °FPassing clouds.3 mph93%30.36 "HgN/A
9:50 PM37 °FPassing clouds.5 mph93%30.39 "HgN/A
9:20 PM37 °FRain showers. Partly cloudy.3 mph93%30.36 "Hg2 mi
8:50 PM37 °FRain showers. Partly cloudy.3 mph93%30.36 "Hg1 mi
8:20 PM37 °FPartly cloudy.7 mph93%30.36 "HgN/A
7:50 PM36 °FSprinkles. Partly cloudy.2 mph93%30.33 "HgN/A
7:20 PM36 °FSprinkles. Partly cloudy.5 mph93%30.33 "HgN/A
6:50 PM39 °FPartly cloudy.8 mph87%30.33 "HgN/A
6:20 PM39 °FPartly cloudy.12 mph93%30.33 "HgN/A
5:50 PM39 °FSprinkles. Partly cloudy.10 mph93%30.33 "HgN/A
5:20 PM39 °FRain showers. Passing clouds.7 mph93%30.30 "Hg2 mi
4:50 PM39 °FSprinkles. Passing clouds.8 mph93%30.30 "HgN/A
4:20 PM39 °FPartly sunny.10 mph93%30.30 "HgN/A
3:50 PM39 °FBroken clouds.10 mph93%30.30 "HgN/A
3:20 PM41 °FBroken clouds.13 mph81%30.27 "HgN/A
2:50 PM41 °FPartly sunny.15 mph87%30.27 "HgN/A
2:20 PM43 °FPartly sunny.14 mph81%30.27 "HgN/A
1:50 PM43 °FPartly sunny.15 mph81%30.27 "HgN/A
1:20 PM43 °FPartly sunny.16 mph81%30.27 "HgN/A
12:50 PM41 °FPartly sunny.14 mph81%30.27 "HgN/A
12:20 PM41 °FPartly sunny.14 mph87%30.27 "HgN/A
11:50 AM41 °FPartly sunny.15 mph81%30.27 "HgN/A
11:20 AM39 °FPartly sunny.16 mph87%30.27 "HgN/A
Weather by CustomWeather, © 2014

See weather overviewHow to use our weather pages